sat.trackr.live / text

‹ back to catalog

SHIJIAN-6 01B (SJ-6 01B)

NORAD 28414 · 2004-035B

PAYLOAD ACTIVE UNKNOWN

§ Identity

Operator
Country
PRC
Launch date
2004-09-08
Launch site
TAISC
Launch vehicle
Mass (kg)
RCS (m²)
2.37

External: N2YO · Heavens-Above · Gunter

§ Orbital elements

Epoch: 2026-09-19T23:01:32.413152Z

Period
95.56 min
Inclination
97.6053°
Eccentricity
0.0004941
Mean motion
15.06879868 rev/d
Perigee alt
542.3 km
Apogee alt
549.2 km
Semi-major
6,923.9 km
B*
8.6845e-5
RAAN
279.6461°
Arg perigee
154.9374°
Mean anomaly
205.2094°
Rev number
20,109

§ Raw data

SHIJIAN-6 01B (SJ-6 01B)1 28414U 04035B   26262.95940293  .00001234  00000+0  86845-4 0  99942 28414  97.6053 279.6461 0004941 154.9374 205.2094 15.06879868201099

JSON: /api/v1/satellites/28414 · /tle

For live sub-satellite position, see the globe view (requires WebGL).

§ Visibility from observer

Set your observer location to see the next 7 days of passes ≥ 10°. The values pass through the URL so the page stays shareable.

No JS? Fill the form by hand. The geolocation button needs JavaScript.